Pagrindinis puslapis
METAR-TAF:

METAR-TAF

Oro uostai :

Midland, Teksasas, Jungtinės Amerikos Valstijos

platuma: 32-02-11N, ilguma: 102-06-03W, Aukštis: 854 m

Dabartinis oras

Ataskaita buvo paskelbta 16 minutes, ne 04:35 UTC
Vėjas 12 kt iš Pietų/Pietryčių
Temperatūra 26°C
Drėgmė 54%
Slėgis 1018 hPa
Matomumas: 16.1 km
Giedras dangus

METAR: KMDD 160435Z AUTO 16012KT 10SM CLR 26/16 A3005 RMK AO2 T02570161

Laikas: 23:51 (04:51 UTC)


TAF: trūkstamas

Orai ataskaitas ir orų prognozės (METAR, TAF).

turimą stotys yra geltonos ir raudonos taškus žemėlapyje.

Perkelti pele per norėdami pamatyti stoties vardą.

Tada spustelėkite, norėdami matyti oro stebėjimo ir prognozės.

Norėdami pakeisti žemėlapį: spustelėkite ant žalios mygtukų su juodo kryžiaus žemyn,; žalią mygtuką su brūkšneliu, jei norite nutolinti; arba žalių rodyklių gretimoms žemėlapius.


METAR-TAF: